User: anonymous   Login
Location: Unspecified
(0.0000°N, 0.0000°E)
Time: 00:38:56
(UTC+00:00)
Language:

Sich 1 - Orbit

View from above orbital plane
View from above orbital plane
View from above satellite
View from above satellite

Ground track
Ground track

The orbit data is extracted from the following two-line orbital elements,

1 23657U 95046A   17206.60368399 +.00000164 +00000-0 +16041-4 0  9994
2 23657 082.5252 224.7098 0021045 318.0582 041.9021 14.85839765182879
Epoch (UTC): 25 July 2017 14:29:18
Eccentricity: 0.0021045
inclination: 82.5252°
perigee height: 596 km
apogee height: 625 km
right ascension of ascending node: 224.7098°
argument of perigee: 318.0582°
revolutions per day: 14.85839765
mean anomaly at epoch: 41.9021°
orbit number at epoch: 18287

The dashed part of the orbit path shows where the satellite is in the earth's shadow,  

DLR